FW8411 Weather Reports


time (UTC)temp
C
wind
direction
speed
KPH
gust
KPH
rain 1hr
cm
rain 24hr
cm
rain mn
cm
humidity
%
barometer
mb
20260503200600 21 195 11.3 19.3 0.00 0.00 0.00 39 998.0
20260503200100 21 265 4.8 19.3 0.00 0.00 0.00 39 998.0
20260503194600 21 292 4.8 19.3 0.00 0.00 0.00 39 998.2
20260503194101 20 202 8.0 19.3 0.00 0.00 0.00 39 998.3
20260503193100 20 206 8.0 20.9 0.00 0.00 0.00 39 998.3
20260503191600 20 157 8.0 25.7 0.00 0.00 0.00 40 998.5
20260503191100 20 190 3.2 12.9 0.00 0.00 0.00 42 998.5
20260503190600 19 186 8.0 19.3 0.00 0.00 0.00 41 998.6
20260503190101 20 206 4.8 19.3 0.00 0.00 0.00 40 998.6
20260503184100 20 194 8.0 14.5 0.00 0.00 0.00 39 998.8
20260503183600 19 261 6.4 14.5 0.00 0.00 0.00 41 998.9
20260503183100 19 197 4.8 19.3 0.00 0.00 0.00 43 999.0
20260503181600 18 183 8.0 20.9 0.00 0.00 0.00 44 999.2
20260503181101 18 190 9.7 22.5 0.00 0.00 0.00 42 999.2
20260503180600 18 185 9.7 19.3 0.00 0.00 0.00 41 999.4
20260503174600 18 169 11.3 24.1 0.00 0.00 0.00 40 999.6
20260503174100 18 193 4.8 16.1 0.00 0.00 0.00 42 999.6
20260503173601 18 198 11.3 20.9 0.00 0.00 0.00 43 999.7
20260503173101 18 177 11.3 25.7 0.00 0.00 0.00 44 999.7
20260503171600 18 193 8.0 19.3 0.00 0.00 0.00 44 1000.0
20260503170600 18 198 16.1 37.0 0.00 0.00 0.00 43 1000.1
20260503150600 13 164 6.4 19.3 0.00 0.00 0.00 58 1001.7
20260503130601 12 176 8.0 19.3 0.00 0.00 0.00 55 1002.6